Home > Weather > Sitka > Past weeks

Flag for USA Past Weather in Sitka, Alaska, USA — Yesterday and Last 2 Weeks

Now
56 °F

Overcast.


Feels Like: 55 °F
Forecast: 53 / 59 °F
Wind: 5 mph from Northwest

Location: Sitka Airport

Current Time: Jun 27, 2016 at 8:54:26 AM

Latest Report: Jun 27, 2016 at 7:53 AM


Visibility: 10 mi

Pressure: 30.26 "Hg

Humidity: 81%

Dew Point: 50 °F

Location of SitkaLocation

Past Weather in Sitka — Graph

°F

Sitka Temperature Yesterday

Maximum temperature yesterday: 57 °F (at 10:53 AM)
Minimum temperature yesterday: 53 °F (at 4:53 AM)
Average temperature yesterday: 55 °F

High & Low Weather Summary for the Past Weeks

 TemperatureHumidityPressure
High65 °F (Jun 18, 2:53 PM)93% (Jun 20, 4:53 PM)30.42 "Hg (Jun 20, 4:53 PM)
Low44 °F (Jun 14, 2:53 AM)56% (Jun 18, 2:53 PM)29.76 "Hg (Jun 12, 8:53 AM)
Average56 °F79%30.05 "Hg
* Reported Jun 12 6:53 AM — Jun 27 6:53 AM, Sitka, Weather by CustomWeather, © 2016

Note: Actual official high and low records may vary slightly from our data, if they occured in-between our weather recording intervals... More about our weather records

Advertising

Sitka Weather History for the Previous 24 Hours

Scroll right to see more
 ConditionsComfort  
Time TempWeatherWind HumidityBarometerVisibility
6:53 AM
Mon, Jun 27
55 °FOvercast.5 mph83%30.26 "Hg10 mi
5:53 AM54 °FOvercast.5 mph86%30.27 "Hg10 mi
4:53 AM54 °FOvercast.5 mph86%30.27 "Hg10 mi
3:53 AM54 °FOvercast.3 mph86%30.27 "Hg10 mi
2:53 AM54 °FOvercast.7 mph86%30.27 "Hg10 mi
1:53 AM55 °FOvercast.8 mph87%30.27 "Hg10 mi
12:53 AM54 °FOvercast.6 mph90%30.28 "Hg10 mi
11:53 PM
Sun, Jun 26
54 °FOvercast.No wind90%30.28 "Hg10 mi
10:53 PM55 °FOvercast.5 mph83%30.28 "Hg10 mi
9:53 PM56 °FOvercast.5 mph81%30.28 "Hg10 mi
8:53 PM56 °FMore clouds than sun.No wind81%30.28 "Hg10 mi
7:53 PM56 °FMostly cloudy.3 mph81%30.29 "Hg10 mi
6:53 PM56 °FOvercast.5 mph84%30.28 "Hg10 mi
5:53 PM55 °FOvercast.5 mph90%30.29 "Hg10 mi
4:53 PM56 °FRain. Fog.8 mph87%30.28 "Hg4 mi
3:53 PM56 °FOvercast.8 mph87%30.27 "Hg10 mi
2:53 PM56 °FLight rain. Overcast.6 mph87%30.27 "Hg10 mi
1:53 PM57 °FOvercast.5 mph81%30.27 "Hg10 mi
12:53 PM56 °FOvercast.10 mph84%30.27 "Hg10 mi
11:53 AM57 °FOvercast.13 mph81%30.26 "Hg10 mi
10:53 AM57 °FOvercast.8 mph81%30.25 "Hg10 mi
9:53 AM56 °FOvercast.5 mph81%30.24 "Hg10 mi
8:53 AM55 °FOvercast.5 mph83%30.24 "Hg10 mi
Weather by CustomWeather, © 2016

See weather overviewHow to use our weather pages